[[{"header":{"parameterUnit":"m.s-1","parameterCategory":1,"la1":30.2991,"la2":30.254,"lo1":-89.0895,"lo2":-89.0444,"dy":0.0017,"dx":0.0017,"nx":28,"ny":28,"refTime":"2024-05-22T09:00:00:Z","depth":0,"parameterNumber":2,"parameterNumberName":"U-component_of_WINDS"},"data":[0,0,0,0,0,0,0,0,0,0,0,0,0,0,0,0,0,0,0,0,0,0,0,0,0,0,0,0,0,0,0,0,0,0,0,0,0,0,0,0,0,0,0,0,0,0,0,0,0,0,0,0,0,0,0,0,0,0,-3.3071,-3.3071,0,-3.31,-3.31,-3.31,-3.3065,-3.3063,-3.3062,-3.3061,-3.3089,-3.3091,-3.3093,0,0,0,0,0,0,0,0,0,0,0,0,0,-3.2986,-3.2988,-3.3071,-3.3072,-3.3072,-3.31,-3.31,-3.31,-3.3065,-3.3063,-3.3062,-3.306,-3.3089,-3.3091,-3.3093,0,0,0,0,0,0,0,0,0,0,0,0,0,-3.302,-3.2989,-3.3071,-3.3058,-3.3057,-3.31,-3.31,-3.3101,-3.3065,-3.3063,-3.3061,-3.306,-3.3088,-3.3091,-3.3094,-3.3151,0,0,-3.3103,-3.3104,0,0,0,0,0,0,0,0,-3.3018,-3.3023,-3.3059,-3.3059,-3.3058,-3.3077,-3.3081,-3.3118,-3.3066,-3.3062,-3.3061,-3.3059,-3.3087,-3.309,-3.3099,-3.3153,-3.3154,-3.3103,-3.3105,-3.3106,-3.3107,0,0,0,0,0,0,0,-3.3016,-3.3022,-3.3082,-3.306,-3.3059,-3.305,-3.3053,-3.3087,-3.3085,-3.3062,-3.306,-3.3064,-3.3086,-3.3096,-3.31,-3.3154,-3.3103,-3.3106,-3.3107,-3.3109,-3.3257,-3.3259,0,0,0,0,0,0,-3.3015,-3.302,-3.3081,-3.3083,-3.3033,-3.3053,-3.3056,-3.3073,-3.3084,-3.3084,-3.3065,-3.3062,-3.3092,-3.3096,-3.3101,-3.3169,-3.3106,-3.3109,-3.3111,-3.3255,-3.3257,-3.326,0,0,0,0,0,0,-3.3013,-3.3021,-3.308,-3.3051,-3.3058,-3.3057,-3.3075,-3.3074,-3.3085,-3.3087,-3.3086,-3.3076,-3.3091,-3.3096,-3.3139,-3.3169,-3.311,-3.3113,-3.3252,-3.3256,-3.3259,-3.3305,0,0,0,0,0,0,-3.3011,-3.302,-3.3042,-3.3052,-3.306,-3.3118,-3.3077,-3.3076,-3.309,-3.3086,-3.3097,-3.3097,-3.309,-3.3135,-3.3142,-3.3172,-3.3115,-3.3249,-3.3254,-3.3258,-3.3301,-3.331,-3.3317,0,0,0,0,0,-3.3008,-3.3054,-3.3043,-3.3051,-3.3087,-3.312,-3.3125,-3.3116,-3.3093,-3.3114,-3.3116,-3.3097,-3.3165,-3.314,-3.3147,-3.3179,-3.3247,-3.3252,-3.3257,-3.3297,-3.3308,-3.3317,0,0,0,0,0,0,-3.3047,-3.3055,-3.3043,-3.3093,-3.3106,-3.3114,-3.3141,-3.3127,-3.3147,-3.3142,-3.313,-3.3133,-3.3178,-3.3183,-3.3154,-3.3235,-3.3202,-3.3209,-3.323,-3.3241,-3.3248,-3.3246,-3.3118,0,0,0,0,0,-3.3061,-3.3088,-3.3093,-3.3137,-3.3145,-3.3142,-3.3156,-3.3148,-3.3161,-3.3167,-3.3171,-3.3185,-3.3209,-3.3225,-3.3248,-3.3302,-3.3304,-3.3328,-3.3336,-3.3343,-3.3348,-3.3378,-3.3388,-3.3276,-3.3276,-3.3276,0,0,-3.3091,-3.3099,-3.3116,-3.3145,-3.3154,-3.3183,-3.3147,-3.3178,-3.3198,-3.3171,-3.3212,-3.3216,-3.323,-3.3279,-3.3301,-3.3284,-3.338,-3.3349,-3.3354,-3.3356,-3.3384,-3.3394,-3.3404,-3.3279,-3.3278,-3.3278,0,0,-3.316,-3.3169,-3.3206,-3.3216,-3.3231,-3.323,-3.3239,-3.3249,-3.3251,-3.3292,-3.3272,-3.3297,-3.3339,-3.335,-3.3361,-3.3437,-3.342,-3.3444,-3.3486,-3.3515,-3.3524,-3.3531,-3.3558,-3.3568,-3.345,-3.345,-3.345,0,-3.3195,-3.3236,-3.3227,-3.326,-3.3273,-3.3251,-3.3289,-3.33,-3.3321,-3.3331,-3.3312,-3.3366,-3.3374,-3.3425,-3.3444,-3.3454,-3.3464,-3.3442,-3.3523,-3.3531,-3.3538,-3.3563,-3.3573,-3.3453,-3.3453,-3.3452,-3.3452,0,-3.3279,-3.3308,-3.3337,-3.3358,-3.3375,-3.3411,-3.3407,-3.3425,-3.3417,-3.3417,-3.3459,-3.3468,-3.3493,-3.3505,-3.3496,-3.3555,-3.3545,-3.3525,-3.3491,-3.3552,-3.3575,-3.3585,-3.3457,-3.3456,-3.3455,-3.3455,0,0,-3.337,-3.3388,-3.3399,-3.3409,-3.3424,-3.3447,-3.3482,-3.3506,-3.3522,-3.3538,-3.3567,-3.3604,-3.3587,-3.3599,-3.3592,-3.3618,-3.3677,-3.3595,-3.3595,-3.3609,-3.3743,-3.3756,-3.3768,-3.3666,-3.3668,-3.367,-3.3741,0,-3.3439,-3.3499,-3.3492,-3.355,-3.3577,-3.3557,-3.3587,-3.3601,-3.3602,-3.3626,-3.3628,-3.3654,-3.3629,-3.3637,-3.3662,-3.3664,-3.3703,-3.3659,-3.3693,-3.3694,-3.3689,-3.378,-3.3794,-3.3861,-3.375,-3.3752,-3.3753,0,-3.3526,-3.3546,-3.3606,-3.3619,-3.363,-3.3657,-3.3679,-3.3702,-3.3717,-3.3717,-3.3732,-3.3721,-3.3756,-3.3723,-3.3772,-3.3742,-3.3756,-3.3759,-3.3762,-3.3763,-3.3726,-3.3783,-3.3882,-3.3892,-3.3767,-3.3766,-3.3765,0,-3.3586,-3.3628,-3.367,-3.3679,-3.3695,-3.3715,-3.3722,-3.3735,-3.3751,-3.377,-3.378,-3.3804,-3.3817,-3.3836,-3.3831,-3.3808,-3.3881,-3.3847,-3.3881,-3.3882,-3.3896,-3.3895,-3.3998,-3.3907,-3.3907,-3.3907,-3.3907,0,-3.3663,-3.37,-3.3697,-3.3723,-3.3764,-3.3757,-3.3799,-3.3804,-3.3816,-3.3842,-3.3827,-3.3852,-3.3845,-3.387,-3.3867,-3.3908,-3.3914,-3.3915,-3.3913,-3.3915,-3.3915,-3.3923,-3.3918,-3.3909,-3.3909,-3.3908,-3.3908,0,-3.3736,-3.3736,-3.378,-3.3792,-3.3796,-3.3826,-3.3836,-3.386,-3.3862,-3.3895,-3.3903,-3.3905,-3.3934,-3.3932,-3.3964,-3.3962,-3.4012,-3.4006,-3.4007,-3.4005,-3.4039,-3.4036,-3.415,-3.4164,-3.4065,-3.4066,-3.4067,0,-3.3784,-3.3813,-3.3828,-3.3845,-3.3854,-3.3881,-3.3897,-3.3892,-3.3909,-3.3929,-3.3951,-3.3978,-3.4,-3.4047,-3.4051,-3.4076,-3.407,-3.4108,-3.4073,-3.4075,-3.4069,-3.4067,-3.407,-3.4114,-3.4115,-3.4116,-3.4117,0,-3.387,-3.3869,-3.3892,-3.3917,-3.3936,-3.3955,-3.3972,-3.3987,-3.3983,-3.4004,-3.4033,-3.405,-3.4083,-3.4111,-3.4135,-3.4143,-3.4129,-3.4128,-3.4137,-3.4139,-3.4139,-3.4139,-3.4025,-3.4125,-3.4124,-3.4124,-3.4123,-3.4123,-3.3932,-3.3956,-3.3971,-3.3998,-3.4011,-3.4028,-3.4051,-3.4056,-3.4081,-3.4108,-3.4103,-3.4136,-3.4152,-3.4183,-3.4193,-3.4219,-3.4205,-3.4218,-3.4221,-3.4225,-3.4228,-3.4136,-3.4223,-3.4223,-3.4223,-3.4223,-3.4223,0,-3.4016,-3.4025,-3.405,-3.4075,-3.4096,-3.4083,-3.4102,-3.4121,-3.415,-3.4166,-3.4188,-3.4222,-3.4249,-3.4256,-3.4283,-3.4302,-3.4297,-3.4309,-3.4307,-3.4309,-3.4239,-3.4228,-3.4313,-3.4313,-3.4313,-3.4313,-3.4313,-3.4313,-3.4062,-3.4103,-3.4104,-3.4151,-3.416,-3.4192,-3.4204,-3.422,-3.4232,-3.4271,-3.4294,-3.4299,-3.4311,-3.4339,-3.4363,-3.4365,-3.4375,-3.4389,-3.4388,-3.4323,-3.4314,-3.4305,-3.4295,-3.4392,-3.4392,-3.4456,-3.4456,-3.4457]},{"header":{"parameterUnit":"m.s-1","parameterCategory":1,"la1":30.2991,"la2":30.254,"lo1":-89.0895,"lo2":-89.0444,"dy":0.0017,"dx":0.0017,"nx":28,"ny":28,"refTime":"2024-05-22T09:00:00:Z","depth":0,"parameterNumber":3,"parameterNumberName":"V-component_of_WINDS"},"data":[0,0,0,0,0,0,0,0,0,0,0,0,0,0,0,0,0,0,0,0,0,0,0,0,0,0,0,0,0,0,0,0,0,0,0,0,0,0,0,0,0,0,0,0,0,0,0,0,0,0,0,0,0,0,0,0,0,0,2.5965,2.5964,0,2.5954,2.5954,2.5954,2.5946,2.5946,2.5946,2.5946,2.5932,2.5932,2.5932,0,0,0,0,0,0,0,0,0,0,0,0,0,2.5976,2.5976,2.5965,2.5964,2.5964,2.5954,2.5954,2.5954,2.5946,2.5946,2.5946,2.5946,2.5933,2.5932,2.5932,0,0,0,0,0,0,0,0,0,0,0,0,0,2.5969,2.5975,2.5965,2.5959,2.5958,2.5954,2.5954,2.5954,2.5946,2.5946,2.5946,2.5946,2.5933,2.5932,2.5932,2.5931,0,0,2.5931,2.593,0,0,0,0,0,0,0,0,2.5969,2.5968,2.596,2.5959,2.5959,2.5951,2.5953,2.5946,2.5946,2.5951,2.5946,2.5946,2.5939,2.5938,2.5936,2.5931,2.593,2.5931,2.593,2.593,2.593,0,0,0,0,0,0,0,2.597,2.5969,2.596,2.596,2.5959,2.5957,2.5956,2.5952,2.5945,2.595,2.595,2.5949,2.5938,2.5936,2.5936,2.593,2.5931,2.593,2.593,2.593,2.5926,2.5926,0,0,0,0,0,0,2.5971,2.5969,2.5961,2.596,2.5964,2.5957,2.5955,2.5954,2.5945,2.5944,2.5949,2.5948,2.5937,2.5936,2.5935,2.5935,2.593,2.593,2.5929,2.5926,2.5926,2.5926,0,0,0,0,0,0,2.5971,2.597,2.5961,2.5964,2.5963,2.5957,2.5955,2.5954,2.5952,2.5944,2.5943,2.5948,2.5937,2.5936,2.5933,2.5934,2.5929,2.5929,2.5925,2.5926,2.5926,2.5934,0,0,0,0,0,0,2.5972,2.5971,2.5971,2.5965,2.5963,2.596,2.5955,2.5954,2.5951,2.5951,2.5943,2.5942,2.5937,2.5934,2.5933,2.5934,2.5929,2.5925,2.5925,2.5926,2.5934,2.5934,2.5935,0,0,0,0,0,2.5972,2.5972,2.5971,2.597,2.5963,2.596,2.5959,2.5954,2.5952,2.5951,2.5947,2.5942,2.5935,2.5933,2.5932,2.5933,2.5925,2.5925,2.5926,2.5933,2.5934,2.5935,0,0,0,0,0,0,2.5977,2.5971,2.5969,2.5968,2.5964,2.5958,2.5958,2.5955,2.5951,2.595,2.5944,2.5942,2.594,2.5936,2.5935,2.5933,2.5929,2.5929,2.5935,2.5936,2.5937,2.5938,2.5928,0,0,0,0,0,2.5978,2.5977,2.5972,2.5971,2.5969,2.5964,2.5962,2.5959,2.5955,2.5953,2.5948,2.5944,2.5941,2.5938,2.5935,2.5933,2.5932,2.5934,2.5934,2.5935,2.5935,2.5935,2.5936,2.5927,2.5927,2.5927,0,0,2.598,2.5977,2.5976,2.5972,2.5969,2.5967,2.5963,2.5961,2.5959,2.5952,2.595,2.5947,2.5941,2.594,2.5938,2.5936,2.5938,2.5936,2.5936,2.5936,2.5935,2.5936,2.5937,2.5927,2.5927,2.5927,0,0,2.5983,2.598,2.598,2.5977,2.5974,2.597,2.597,2.5965,2.5963,2.5961,2.5956,2.5954,2.5948,2.5945,2.5943,2.5947,2.5942,2.5946,2.595,2.595,2.595,2.5951,2.5953,2.5953,2.5946,2.5946,2.5946,0,2.5985,2.5983,2.5979,2.5978,2.5977,2.5972,2.5972,2.5969,2.5964,2.5963,2.5961,2.5955,2.5951,2.5949,2.595,2.5948,2.5948,2.5946,2.5951,2.5951,2.5952,2.5953,2.5954,2.5946,2.5946,2.5946,2.5946,0,2.5987,2.5985,2.5985,2.5982,2.5981,2.598,2.5976,2.5975,2.5972,2.5969,2.5967,2.5963,2.5959,2.5958,2.5955,2.5956,2.5955,2.5952,2.5948,2.5953,2.5955,2.5955,2.5947,2.5947,2.5947,2.5946,0,0,2.599,2.5987,2.5987,2.5986,2.5982,2.5981,2.598,2.5978,2.5977,2.5974,2.5973,2.597,2.5968,2.5965,2.5962,2.5962,2.5966,2.5959,2.5959,2.596,2.5968,2.597,2.5971,2.5964,2.5964,2.5964,2.5968,0,2.5992,2.5992,2.5989,2.5989,2.5988,2.5985,2.5984,2.5982,2.598,2.5978,2.5975,2.5973,2.597,2.5969,2.5969,2.5965,2.5967,2.5965,2.5963,2.5962,2.5964,2.5971,2.5973,2.5977,2.5969,2.5969,2.5969,0,2.5994,2.5993,2.5993,2.5991,2.5991,2.599,2.5988,2.5987,2.5985,2.5983,2.5982,2.5979,2.5978,2.5975,2.5974,2.5972,2.5972,2.597,2.597,2.5969,2.5965,2.597,2.5978,2.5979,2.597,2.5969,2.5969,0,2.5997,2.5996,2.5996,2.5995,2.5993,2.5993,2.5991,2.5989,2.5988,2.5987,2.5986,2.5984,2.5983,2.5981,2.5978,2.5976,2.5977,2.5974,2.5976,2.5976,2.5975,2.5975,2.5983,2.5976,2.5975,2.5975,2.5975,0,2.5999,2.5999,2.5997,2.5997,2.5998,2.5995,2.5996,2.5994,2.5993,2.5992,2.5989,2.5989,2.5984,2.5984,2.5981,2.5981,2.598,2.5979,2.5978,2.5979,2.5979,2.5977,2.5977,2.5976,2.5976,2.5976,2.5976,0,2.6002,2.6001,2.6001,2.5999,2.5999,2.6,2.5998,2.5998,2.5996,2.5996,2.5996,2.5993,2.5992,2.5989,2.5986,2.5985,2.5986,2.5984,2.5987,2.5986,2.5988,2.5988,2.5995,2.5996,2.5988,2.5988,2.5988,0,2.6003,2.6004,2.6003,2.6003,2.6003,2.6002,2.6002,2.6,2.6,2.5998,2.5999,2.5998,2.5997,2.5996,2.5993,2.5992,2.599,2.5993,2.599,2.5991,2.599,2.599,2.599,2.5993,2.5993,2.5993,2.5993,0,2.6006,2.6006,2.6006,2.6006,2.6006,2.6006,2.6005,2.6006,2.6003,2.6003,2.6003,2.6003,2.6002,2.6001,2.5999,2.5998,2.5995,2.5995,2.5995,2.5995,2.5997,2.5996,2.5988,2.5994,2.5994,2.5994,2.5994,2.5994,2.6008,2.6009,2.6009,2.6009,2.6009,2.6009,2.6009,2.6009,2.6009,2.6008,2.6007,2.6007,2.6006,2.6004,2.6003,2.6003,2.6002,2.6002,2.6002,2.6002,2.6003,2.5998,2.6003,2.6003,2.6003,2.6003,2.6003,0,2.6011,2.6011,2.6011,2.6012,2.6012,2.6011,2.6011,2.6012,2.6012,2.6012,2.6012,2.6012,2.6012,2.601,2.601,2.601,2.6009,2.601,2.6009,2.6009,2.6004,2.6004,2.6011,2.6011,2.6011,2.6011,2.6011,2.6011,2.6012,2.6013,2.6013,2.6015,2.6015,2.6016,2.6016,2.6016,2.6016,2.6017,2.6017,2.6016,2.6016,2.6016,2.6015,2.6015,2.6015,2.6016,2.6015,2.601,2.6009,2.6009,2.6008,2.6016,2.6016,2.6021,2.6021,2.6021]}]]